Content
SEND FEEDBACK

Daily
Averages
Monthly
Summary
United States of America

SHELL POINT, SOUTH CAROLINA


Home > North America > United States > South Carolina
Elevation: 20 feet     Latitude: 32 22N     Longitude: 080 46W

WEATHER
 
SELECT A DAY
Number of Records: 188,023;   Date Range: 1/1/95 - 9/18/14
 
SHARE

PRINT THIS DATA

[ ← Previous Day ]
WEATHER ALMANAC - FEBRUARY 13, 2013
[ Next Day → ]
[ °C ]   °F
Weather ElementAverageHighLow
Temperature60.1 °F75.9 °F (2:56 pm)52 °F (11:56 pm)
Dewpoint53.4 °F64.4 °F (11:24 am)44.1 °F (4:56 pm)
Humidity81.1 %100 % (2:09 am)40 % (4:56 pm)
Barometer29.80 in29.90 in (10:56 pm)29.72 in (1:56 pm)
Wind Speed8.1 mph18.4 mph (4:56 pm)
Wind Gust32.2 mph (8:56 pm)
Weather ElementAverage
Visibility7.4 mi
Wind DirectionS (174.8 °)

Weather ElementTotal
Precipitation2.27 in
Heating Degree Days1.1 (Base 65)
Growing Degree Days14 (Base 50)
Averaged from 40 records on February 13, 2013
WEATHER CONDITIONS BREAKOUT
WIND DIRECTION BREAKOUT
WEATHER BY HOUR - FEBRUARY 13, 2013
[ °C ]   °F
Local TimeTemperatureDewpointHumidityBarometerVisibilityWind DirectionWind SpeedGust SpeedPrecipitationEventsConditions
12:33 AM53.6 °F51.8 °F94 %29.85 in7.0 miENE (70°)9.2 mph0.03 inRainRain
12:41 AM53.6 °F51.8 °F94 %29.85 in7.0 miENE (60°)8.1 mph0.04 inRainLight Rain
12:56 AM54.0 °F52.0 °F93 %29.84 in6.0 miENE (60°)8.1 mph0.06 inRainLight Rain
1:22 AM53.6 °F51.8 °F94 %29.84 in3.0 miESE (120°)3.5 mph0.13 inRainRain
1:28 AM53.6 °F51.8 °F94 %29.84 in4.0 miCalm0.16 inRainRain
1:42 AM53.6 °F51.8 °F94 %29.83 in3.0 miNE (50°)3.5 mph0.21 inRainRain
1:56 AM54.0 °F52.0 °F93 %29.82 in10.0 miENE (70°)4.6 mph0.21 inOvercast
2:09 AM53.6 °F53.6 °F100 %29.82 in10.0 miNNE (20°)6.9 mphOvercast
2:56 AM55.0 °F53.1 °F93 %29.79 in10.0 miENE (70°)5.8 mph0.01 inOvercast
3:18 AM55.4 °F53.6 °F94 %29.77 in1.8 miNE (50°)4.6 mph0.19 inRainHeavy Rain
3:27 AM55.4 °F53.6 °F94 %29.77 in2.0 miCalm0.27 inRain-ThunderstormHeavy Thunderstorms and Rain
3:36 AM55.4 °F53.6 °F94 %29.76 in4.0 miEast (80°)4.6 mph0.29 inRain-ThunderstormThunderstorms and Rain
3:49 AM55.4 °F53.6 °F94 %29.75 in10.0 miNE (40°)4.6 mph0.29 inOvercast
3:56 AM55.9 °F54.0 °F93 %29.76 in10.0 miNE (40°)3.5 mph0.29 inOvercast
4:06 AM55.4 °F53.6 °F94 %29.75 in8.0 miNE (40°)4.6 mph0.00 inRainLight Rain
4:56 AM55.9 °F54.0 °F93 %29.77 in10.0 miNorth (360°)4.6 mph0.05 inRainLight Rain
5:56 AM55.9 °F54.0 °F93 %29.76 in10.0 miCalm0.01 inOvercast
6:56 AM55.9 °F54.0 °F93 %29.78 in2.0 miNorth (360°)4.6 mphOvercast
7:22 AM55.4 °F53.6 °F94 %29.79 in1.0 miNorth (360°)5.8 mphOvercast
7:56 AM55.0 °F54.0 °F96 %29.80 in1.0 miCalmMist
7:59 AM55.4 °F53.6 °F94 %29.80 in0.5 miCalmMist
8:56 AM57.9 °F55.9 °F93 %29.81 in3.0 miSSW (200°)3.5 mphMostly Cloudy
9:56 AM64.0 °F61.0 °F90 %29.81 in3.0 miSW (230°)8.1 mphMostly Cloudy
10:56 AM69.1 °F62.1 °F78 %29.80 in10.0 miWSW (240°)12.7 mphMostly Cloudy
11:24 AM71.6 °F64.4 °F78 %29.78 in10.0 miWSW (250°)12.7 mphMostly Cloudy
11:38 AM71.6 °F64.4 °F78 %29.78 in10.0 miWNW (290°)13.8 mphMostly Cloudy
11:56 AM71.1 °F62.1 °F73 %29.78 in10.0 miWest (280°)13.8 mphMostly Cloudy
12:18 PM71.6 °F62.6 °F73 %29.76 in10.0 miWSW (250°)17.3 mph25.3 mphScattered Clouds
12:56 PM73.9 °F61.0 °F64 %29.75 in10.0 miWSW (250°)16.1 mphMostly Cloudy
1:56 PM73.9 °F55.9 °F53 %29.72 in10.0 miWSW (250°)12.7 mphMostly Cloudy
2:56 PM75.9 °F52.0 °F43 %29.73 in10.0 miWest (280°)13.8 mph20.7 mphMostly Cloudy
3:56 PM72.0 °F51.1 °F48 %29.75 in10.0 miWNW (290°)9.2 mphMostly Cloudy
4:56 PM69.1 °F44.1 °F40 %29.80 in10.0 miWest (280°)18.4 mph31.1 mphOvercast
5:56 PM64.9 °F46.0 °F50 %29.81 in10.0 miWest (280°)10.4 mph21.9 mph0.00 inOvercast
6:56 PM64.9 °F44.1 °F47 %29.82 in10.0 miWest (280°)13.8 mph23.0 mphMostly Cloudy
7:56 PM64.0 °F44.1 °F48 %29.84 in10.0 miWest (270°)11.5 mphOvercast
8:56 PM59.0 °F48.0 °F67 %29.88 in10.0 miNW (310°)16.1 mph32.2 mphOvercast
9:56 PM53.1 °F48.0 °F83 %29.89 in10.0 miWNW (290°)11.5 mph0.03 inMostly Cloudy
10:56 PM53.1 °F48.0 °F83 %29.90 in10.0 miNW (310°)9.2 mphClear
11:56 PM52.0 °F46.0 °F80 %29.89 in10.0 miNW (310°)11.5 mphClear
Hourly data recorded from KNBC, located miles away from Shell Point, South Carolina







STORIES FROM OUR PARTNERS